Weather History for Reno, NV

Change the Weather History Date:

Thursday, January 19, 2012

  Actual Average Record
Temperature  
Mean Temperature 43 °F 36 °F  
Max Temperature 55 °F 46 °F 67 °F (1986)
Min Temperature 30 °F 26 °F -4 °F (1952)
Degree Days  
Heating Degree Days 22 29  
Month to date heating degree days 510 569  
Since 1 July heating degree days 2424 2593  
Cooling Degree Days 0 0  
Month to date cooling degree days 0 0  
Year to date cooling degree days 0 0  
Moisture  
Dew Point 12 °F    
Average Humidity 37    
Maximum Humidity 64    
Minimum Humidity 10    
Precipitation  
Precipitation 0.00 in 0.03 in 0.73 in (1969)
Month to date precipitation 0.03 0.69  
Year to date precipitation 0.03 0.69  
Snow  
Snow 0.00 in 0.10 in 10.50 in (1933)
Month to date snowfall 0.4 4.1  
Since 1 July snowfall 0.4 12.5  
Snow Depth 0.00 in    
Sea Level Pressure  
Sea Level Pressure 29.94 in    
Wind  
Wind Speed 13 mph (SSE)    
Max Wind Speed 52 mph    
Max Gust Speed 74 mph    
Visibility 9 miles    
Events      
T = Trace of Precipitation, MM = Missing Value Source: NWS Daily Summary

Daily Weather History Graph

Daily Weather History Graph

Search for Another Location

Airport:

Trip Planner

Search our weather history database for the weather conditions in past years. The results will help you decide how hot, cold, wet, or windy it might be!

Date:

Astronomy

Jan. 19, 2012 Rise Set
Actual Time 7:16 AM PST 5:03 PM PST
Civil Twilight 6:46 AM PST 5:32 PM PST
Nautical Twilight 6:13 AM PST 6:05 PM PST
Astronomical Twilight 5:41 AM PST 6:37 PM PST
Moon 3:57 AM PST (1/19) 1:40 PM PST (1/19)
Length of Visible Light 10h 46m
Length of Day
9h 47m
Waning Crescent, 15% of the Moon is Illuminated
Jan 19
Waning Crescent
Jan 22
New
Jan 30
First Quarter
Feb 7
Full
Feb 14
Last Quarter

Hourly Weather History & Observations

Time (PST) Temp. Windchill Dew Point Humidity Pressure Visibility Wind Dir Wind Speed Gust Speed Precip Events Conditions
12:55 AM 36.0 °F - -6.0 °F 17% 30.06 in 10.0 mi Calm Calm - N/A   Partly Cloudy
1:55 AM 33.1 °F 28.7 °F -4.0 °F 20% 30.06 in 10.0 mi North 4.6 mph - N/A   Clear
2:55 AM 33.1 °F 28.7 °F -2.0 °F 22% 30.06 in 10.0 mi East 4.6 mph - N/A   Partly Cloudy
3:55 AM 33.1 °F - -0.9 °F 23% 30.03 in 10.0 mi Calm Calm - N/A   Scattered Clouds
4:55 AM 32.0 °F - -0.9 °F 24% 30.03 in 10.0 mi Calm Calm - N/A   Scattered Clouds
5:55 AM 39.9 °F 36.7 °F -4.0 °F 16% 29.99 in 10.0 mi NE 4.6 mph - N/A   Scattered Clouds
6:55 AM 39.0 °F 36.8 °F -2.9 °F 17% 29.98 in 10.0 mi NW 3.5 mph - N/A   Mostly Cloudy
7:55 AM 41.0 °F - -4.0 °F 15% 29.96 in 10.0 mi Calm Calm - N/A   Mostly Cloudy
8:55 AM 45.0 °F 39.7 °F -2.9 °F 14% 29.95 in 10.0 mi East 10.4 mph - N/A   Mostly Cloudy
9:20 AM 53.6 °F - -4.0 °F 9% 30.00 in 10.0 mi South 24.2 mph 35.7 mph N/A   Mostly Cloudy
9:55 AM 53.1 °F - -2.9 °F 10% 29.95 in 10.0 mi SSE 20.7 mph 28.8 mph N/A   Mostly Cloudy
10:55 AM 54.0 °F - -2.0 °F 10% 29.94 in 10.0 mi South 36.8 mph 43.7 mph N/A   Overcast
11:55 AM 52.0 °F - 17.1 °F 25% 29.94 in 10.0 mi South 24.2 mph 31.1 mph N/A   Mostly Cloudy
12:55 PM 51.1 °F - 14.0 °F 23% 29.90 in 10.0 mi South 34.5 mph 56.4 mph N/A   Mostly Cloudy
1:55 PM 51.1 °F - 16.0 °F 25% 29.85 in 7.0 mi South 43.7 mph 58.7 mph N/A   Mostly Cloudy
2:55 PM 52.0 °F - 19.0 °F 27% 29.85 in 8.0 mi South 34.5 mph 56.4 mph N/A   Mostly Cloudy
3:33 PM 51.8 °F - 17.6 °F 26% 29.86 in 2.5 mi SSE 28.8 mph 70.2 mph N/A   Smoke
3:40 PM 51.8 °F - 19.4 °F 28% 29.86 in 5.0 mi South 39.1 mph 56.4 mph N/A   Smoke
3:55 PM 50.0 °F - 21.2 °F 32% 29.83 in 5.0 mi South 36.8 mph 58.7 mph N/A   Smoke
4:55 PM 48.9 °F - 25.0 °F 39% 29.88 in 8.0 mi SSW 10.4 mph 36.8 mph N/A   Overcast
5:55 PM 46.9 °F - 28.0 °F 48% 29.91 in 10.0 mi NNW 8.1 mph - N/A   Overcast
6:55 PM 45.0 °F 43.5 °F 30.0 °F 56% 29.94 in 10.0 mi West 3.5 mph - N/A   Mostly Cloudy
7:55 PM 43.0 °F 38.8 °F 28.9 °F 58% 29.93 in 10.0 mi NW 6.9 mph - N/A   Scattered Clouds
8:55 PM 42.1 °F - 28.9 °F 60% 29.91 in 10.0 mi Calm Calm - N/A   Scattered Clouds
9:55 PM 41.0 °F 37.1 °F 28.9 °F 62% 29.90 in 10.0 mi ENE 5.8 mph - N/A   Scattered Clouds
10:55 PM 37.9 °F 34.4 °F 27.0 °F 65% 29.90 in 10.0 mi North 4.6 mph - N/A   Scattered Clouds
11:55 PM 37.9 °F 35.5 °F 28.0 °F 68% 29.90 in 10.0 mi Variable 3.5 mph - N/A   Scattered Clouds